COSMOS 2251 DEB, 35462

Orbit data source: Space-Track

COSMOS 2251 DEB, 35462 is space debris in LEO originally from a launch on Wed, 16 Jun 1993 UTC launched from the Plesetsk Missile And Space Complex (PKMTR). The debris from Iridium 33, an American commercial communications satellite, has been tracked extensively since its accidental collision with the defunct Russian satellite Cosmos 2251 in 2009. This event, occurring at high speed in low Earth orbit (LEO), generated thousands of pieces of space debris, significantly increasing the risk of further collisions. The Iridium 33 debris cloud has impacted space traffic management and orbital debris mitigation strategies, making it a subject of ongoing study in space situational awareness.

Loading next visibility...
Identifier
35462, 1993-036ALG
Orbit
LEO
Country
Flag of CISCIS
Related business
Manufacturer
Unknown
Mission
Spacecraft
Bus & Motor
Unknown
Mass
Unknown
Launch date (UTC)
1993-06-16 (33 years ago)
Launch vehicle
Unknown
Launch site
Plesetsk Missile And Space Complex (PKMTR)
Object type
Payload
Rocket body
Debris
Shape & HBR
Unknown shape, 0.1 m
Radar Cross Section
Small (<0.1 m²)

Expand to show TLE details & history
Last TLE update: 2 days ago

TLE from 2 days ago
0 COSMOS 2251 DEB
1 35462U 93036ALG 26173.65962373  .00001405  00000-0  52705-3 0  9993
2 35462  74.0354 279.6704 0084042 270.2229  88.9291 14.30649609691243
Epoch: 2026-06-22T15:49Z
TLE epoch observation values (Epoch: 2026-06-22T15:49:51.490Z)
Latitude
Longitude
131.3635°
Altitude
791.545 km
Speed
7.458 km/s
True Right ascension
18h 38m 40s
True Declination
0° 00' 00"
Sunlit
Object was in full shadow at epoch
Visualization orbit readout
Latitude
Unknown
Longitude
Unknown
Altitude
Unknown
Speed
Unknown
Apparent Right ascension
Unknown
Apparent Declination
Unknown
Sunlit
N/A
Visualization observer readout
Local Sidereal Time
15:38:30
Azimuth
Unknown
Elevation
Unknown
Doppler factor
Unknown
Orbital elements
Apogee altitude
847.409 km
Perigee altitude
726.971 km
Semi-major axis
7,165.327 km
Eccentricity
0.0084
Inclination
74.0354°
RAAN
279.6704°
Arg. of periapsis
270.2229°
True anomaly
89.89213°
Mean anomaly
88.9291°
Eccentric anomaly
89.4106°
Mean motion
3.5784 °/min
Orbital period
100.6 mins
BSTAR
0.00052705

Documentation

Showing up to 5 results
|